Time,TemperatureF,DewpointF,PressureIn,WindDirection,WindDirectionDegrees,WindSpeedMPH,WindSpeedGustMPH,Humidity,HourlyPrecipIn,Conditions,Clouds,dailyrainin,SoftwareType,DateUTC
2013-03-29 00:02:00,44.4,44.2,30.12,West,270,0.0,0.0,99,0.00,,,0.06,meteohub,2013-03-29 07:02:00,
2013-03-29 00:07:00,44.1,43.9,30.12,West,270,0.0,0.0,99,0.00,,,0.00,meteohub,2013-03-29 07:07:00,
2013-03-29 00:12:00,43.7,43.5,30.12,West,270,0.0,0.0,99,0.00,,,0.00,meteohub,2013-03-29 07:12:00,
2013-03-29 00:17:00,43.7,43.5,30.11,West,270,0.0,0.0,99,0.00,,,0.00,meteohub,2013-03-29 07:17:00,
2013-03-29 00:22:00,43.5,43.3,30.11,West,270,0.0,0.0,99,0.00,,,0.00,meteohub,2013-03-29 07:22:00,
2013-03-29 00:27:00,43.3,43.2,30.12,West,270,0.0,0.0,99,0.00,,,0.00,meteohub,2013-03-29 07:27:00,
2013-03-29 00:32:00,43.5,43.3,30.12,West,270,0.0,0.0,99,0.00,,,0.00,meteohub,2013-03-29 07:32:00,
2013-03-29 00:37:00,43.3,43.2,30.12,West,270,0.0,0.0,99,0.00,,,0.00,meteohub,2013-03-29 07:37:00,
2013-03-29 00:42:00,43.3,43.2,30.12,West,270,0.0,0.0,99,0.00,,,0.00,meteohub,2013-03-29 07:42:00,
2013-03-29 00:47:00,43.2,43.0,30.12,West,270,0.0,0.0,99,0.00,,,0.00,meteohub,2013-03-29 07:47:00,
2013-03-29 00:52:00,43.3,43.2,30.12,West,270,0.0,0.0,99,0.00,,,0.00,meteohub,2013-03-29 07:52:00,
2013-03-29 00:57:00,43.3,43.2,30.12,West,270,0.0,0.0,99,0.00,,,0.00,meteohub,2013-03-29 07:57:00,
2013-03-29 01:02:00,43.2,43.0,30.12,West,270,0.0,0.0,99,0.00,,,0.00,meteohub,2013-03-29 08:02:00,
2013-03-29 01:07:00,43.0,42.8,30.12,West,270,0.0,0.0,99,0.00,,,0.00,meteohub,2013-03-29 08:07:00,
2013-03-29 01:13:00,43.0,42.8,30.13,West,270,0.0,0.0,99,0.00,,,0.00,meteohub,2013-03-29 08:13:00,
2013-03-29 01:18:00,43.0,42.8,30.13,West,270,0.0,0.0,99,0.00,,,0.00,meteohub,2013-03-29 08:18:00,
2013-03-29 01:23:00,42.8,42.6,30.13,West,270,0.0,0.0,99,0.00,,,0.00,meteohub,2013-03-29 08:23:00,
2013-03-29 01:28:00,42.6,42.4,30.12,West,270,0.0,0.0,99,0.00,,,0.00,meteohub,2013-03-29 08:28:00,
2013-03-29 01:33:00,42.4,42.3,30.12,West,270,0.0,1.0,99,0.00,,,0.00,meteohub,2013-03-29 08:33:00,
2013-03-29 01:38:00,42.4,42.3,30.12,West,270,0.0,1.0,99,0.00,,,0.00,meteohub,2013-03-29 08:38:00,
2013-03-29 01:43:00,39.9,39.7,30.12,WSW,248,1.0,1.0,99,0.00,,,0.00,meteohub,2013-03-29 08:43:00,
2013-03-29 01:48:00,42.6,42.4,30.13,West,270,1.0,1.0,99,0.00,,,0.00,meteohub,2013-03-29 08:48:00,
2013-03-29 01:53:00,43.3,43.2,30.12,West,270,0.0,1.0,99,0.00,,,0.00,meteohub,2013-03-29 08:53:00,
2013-03-29 01:58:00,43.2,43.0,30.13,West,270,0.0,1.0,99,0.00,,,0.00,meteohub,2013-03-29 08:58:00,
2013-03-29 02:03:00,43.0,42.8,30.13,West,270,0.0,1.0,99,0.00,,,0.00,meteohub,2013-03-29 09:03:00,
2013-03-29 02:08:00,42.4,42.3,30.13,West,270,0.0,1.0,99,0.00,,,0.00,meteohub,2013-03-29 09:08:00,
2013-03-29 02:13:00,42.6,42.4,30.13,West,270,0.0,1.0,99,0.00,,,0.00,meteohub,2013-03-29 09:13:00,
2013-03-29 02:18:00,42.8,42.6,30.13,West,270,1.0,1.0,99,0.00,,,0.00,meteohub,2013-03-29 09:18:00,
2013-03-29 02:23:00,50.0,49.6,30.13,SSE,158,1.0,1.0,99,0.00,,,0.00,meteohub,2013-03-29 09:23:00,
2013-03-29 02:28:00,46.6,46.4,30.13,West,270,0.0,1.0,99,0.00,,,0.00,meteohub,2013-03-29 09:28:00,
2013-03-29 02:33:00,41.5,41.4,30.13,South,180,0.0,2.0,99,0.00,,,0.00,meteohub,2013-03-29 09:33:00,
2013-03-29 02:38:00,41.4,41.2,30.13,South,180,0.0,2.0,99,0.00,,,0.00,meteohub,2013-03-29 09:38:00,
2013-03-29 02:43:00,41.0,40.8,30.13,South,180,0.0,2.0,99,0.00,,,0.00,meteohub,2013-03-29 09:43:00,
2013-03-29 02:48:00,40.5,40.3,30.13,South,180,0.0,1.0,99,0.00,,,0.00,meteohub,2013-03-29 09:48:00,
2013-03-29 02:53:00,40.3,40.1,30.14,South,180,0.0,0.0,99,0.00,,,0.00,meteohub,2013-03-29 09:53:00,
2013-03-29 02:58:00,40.1,39.9,30.13,South,180,0.0,0.0,99,0.00,,,0.00,meteohub,2013-03-29 09:58:00,
2013-03-29 03:03:00,39.9,39.7,30.13,South,180,0.0,0.0,99,0.00,,,0.00,meteohub,2013-03-29 10:03:00,
2013-03-29 03:08:00,39.7,39.6,30.13,South,180,0.0,0.0,99,0.00,,,0.00,meteohub,2013-03-29 10:08:00,
2013-03-29 03:13:00,39.6,39.4,30.14,South,180,0.0,0.0,99,0.00,,,0.00,meteohub,2013-03-29 10:13:00,
2013-03-29 03:18:00,39.2,39.0,30.14,South,180,0.0,0.0,99,0.00,,,0.00,meteohub,2013-03-29 10:18:00,
2013-03-29 03:23:00,39.0,38.8,30.14,South,180,0.0,0.0,99,0.00,,,0.00,meteohub,2013-03-29 10:23:00,
2013-03-29 03:28:00,38.7,38.5,30.14,South,180,0.0,0.0,99,0.00,,,0.00,meteohub,2013-03-29 10:28:00,
2013-03-29 03:33:00,38.5,38.3,30.14,South,180,0.0,0.0,99,0.00,,,0.00,meteohub,2013-03-29 10:33:00,
2013-03-29 03:38:00,38.3,38.1,30.14,South,180,0.0,0.0,99,0.00,,,0.00,meteohub,2013-03-29 10:38:00,
2013-03-29 03:43:00,38.3,38.1,30.14,South,180,0.0,0.0,99,0.00,,,0.00,meteohub,2013-03-29 10:43:00,
2013-03-29 03:48:00,38.3,38.1,30.14,South,180,0.0,0.0,99,0.00,,,0.00,meteohub,2013-03-29 10:48:00,
2013-03-29 03:53:00,38.5,38.3,30.14,South,180,0.0,0.0,99,0.00,,,0.00,meteohub,2013-03-29 10:53:00,
2013-03-29 03:58:00,38.7,38.5,30.15,South,180,0.0,0.0,99,0.00,,,0.00,meteohub,2013-03-29 10:58:00,
2013-03-29 04:03:00,38.8,38.7,30.15,South,180,0.0,0.0,99,0.00,,,0.00,meteohub,2013-03-29 11:03:00,
2013-03-29 04:08:00,39.2,39.0,30.15,South,180,0.0,0.0,99,0.00,,,0.00,meteohub,2013-03-29 11:08:00,
2013-03-29 04:13:00,39.2,39.0,30.14,South,180,0.0,0.0,99,0.00,,,0.00,meteohub,2013-03-29 11:13:00,
2013-03-29 04:18:00,39.2,39.0,30.14,South,180,0.0,0.0,99,0.00,,,0.00,meteohub,2013-03-29 11:18:00,
2013-03-29 04:23:00,39.2,39.0,30.15,South,180,0.0,0.0,99,0.00,,,0.00,meteohub,2013-03-29 11:23:00,
2013-03-29 04:29:00,39.4,39.2,30.15,South,180,0.0,0.0,99,0.00,,,0.00,meteohub,2013-03-29 11:29:00,
2013-03-29 04:34:00,39.6,39.4,30.15,South,180,0.0,0.0,99,0.00,,,0.00,meteohub,2013-03-29 11:34:00,
2013-03-29 04:39:00,39.4,39.2,30.14,South,180,0.0,0.0,99,0.00,,,0.00,meteohub,2013-03-29 11:39:00,
2013-03-29 04:44:00,39.7,39.6,30.15,South,180,0.0,0.0,99,0.00,,,0.00,meteohub,2013-03-29 11:44:00,
2013-03-29 04:49:00,39.6,39.4,30.15,WSW,248,0.0,0.0,99,0.00,,,0.00,meteohub,2013-03-29 11:49:00,
2013-03-29 04:54:00,40.8,40.6,30.15,WSW,248,0.0,1.0,99,0.00,,,0.00,meteohub,2013-03-29 11:54:00,
2013-03-29 04:59:00,40.3,40.1,30.16,South,180,0.0,1.0,99,0.00,,,0.00,meteohub,2013-03-29 11:59:00,
2013-03-29 05:04:00,40.6,40.5,30.15,South,180,0.0,1.0,99,0.00,,,0.00,meteohub,2013-03-29 12:04:00,
2013-03-29 05:09:00,40.8,40.6,30.16,South,180,0.0,1.0,99,0.00,,,0.00,meteohub,2013-03-29 12:09:00,
2013-03-29 05:14:00,41.0,40.8,30.16,South,180,0.0,1.0,99,0.00,,,0.00,meteohub,2013-03-29 12:14:00,
2013-03-29 05:19:00,41.0,40.8,30.16,South,180,0.0,0.0,99,0.00,,,0.00,meteohub,2013-03-29 12:19:00,
2013-03-29 05:24:00,41.0,40.8,30.16,South,180,0.0,0.0,99,0.00,,,0.00,meteohub,2013-03-29 12:24:00,
2013-03-29 05:29:00,41.0,40.8,30.16,South,180,0.0,0.0,99,0.00,,,0.00,meteohub,2013-03-29 12:29:00,
2013-03-29 05:34:00,40.8,40.6,30.16,South,180,0.0,0.0,99,0.00,,,0.00,meteohub,2013-03-29 12:34:00,
2013-03-29 05:39:00,40.8,40.6,30.16,South,180,0.0,0.0,99,0.00,,,0.00,meteohub,2013-03-29 12:39:00,
2013-03-29 05:44:00,40.6,40.5,30.16,South,180,0.0,0.0,99,0.00,,,0.00,meteohub,2013-03-29 12:44:00,
2013-03-29 05:49:00,40.8,40.6,30.16,South,180,0.0,0.0,99,0.00,,,0.00,meteohub,2013-03-29 12:49:00,
2013-03-29 05:54:00,40.8,40.6,30.16,South,180,0.0,0.0,99,0.00,,,0.00,meteohub,2013-03-29 12:54:00,
2013-03-29 05:59:00,40.6,40.5,30.16,South,180,0.0,0.0,99,0.00,,,0.00,meteohub,2013-03-29 12:59:00,
2013-03-29 06:05:00,40.8,40.6,30.16,South,180,0.0,0.0,99,0.00,,,0.00,meteohub,2013-03-29 13:05:00,
2013-03-29 06:10:00,40.8,40.6,30.16,South,180,0.0,0.0,99,0.00,,,0.00,meteohub,2013-03-29 13:10:00,
2013-03-29 06:15:00,40.6,40.5,30.16,South,180,0.0,0.0,99,0.00,,,0.00,meteohub,2013-03-29 13:15:00,
2013-03-29 06:20:00,40.6,40.5,30.16,South,180,0.0,0.0,99,0.00,,,0.00,meteohub,2013-03-29 13:20:00,
2013-03-29 06:25:00,40.6,40.5,30.17,South,180,0.0,0.0,99,0.00,,,0.00,meteohub,2013-03-29 13:25:00,
2013-03-29 06:30:00,40.6,40.5,30.17,South,180,0.0,0.0,99,0.00,,,0.00,meteohub,2013-03-29 13:30:00,
2013-03-29 06:35:00,40.8,40.6,30.17,South,180,0.0,0.0,99,0.00,,,0.00,meteohub,2013-03-29 13:35:00,
2013-03-29 06:40:00,40.5,40.3,30.17,South,180,0.0,0.0,99,0.00,,,0.00,meteohub,2013-03-29 13:40:00,
2013-03-29 06:45:00,40.6,40.5,30.17,South,180,0.0,0.0,99,0.00,,,0.00,meteohub,2013-03-29 13:45:00,
2013-03-29 06:50:00,40.8,40.6,30.17,South,180,0.0,0.0,99,0.00,,,0.00,meteohub,2013-03-29 13:50:00,
2013-03-29 06:55:00,40.5,40.3,30.18,South,180,0.0,0.0,99,0.00,,,0.00,meteohub,2013-03-29 13:55:00,
2013-03-29 07:00:00,40.5,40.3,30.18,South,180,0.0,0.0,99,0.00,,,0.00,meteohub,2013-03-29 14:00:00,
2013-03-29 07:05:00,40.3,40.1,30.18,South,180,0.0,0.0,99,0.00,,,0.00,meteohub,2013-03-29 14:05:00,
2013-03-29 07:10:00,40.3,40.1,30.18,South,180,0.0,0.0,99,0.00,,,0.00,meteohub,2013-03-29 14:10:00,
2013-03-29 07:15:00,40.5,40.3,30.18,South,180,0.0,0.0,99,0.00,,,0.00,meteohub,2013-03-29 14:15:00,
2013-03-29 07:20:00,40.6,40.5,30.19,South,180,0.0,0.0,99,0.00,,,0.00,meteohub,2013-03-29 14:20:00,
2013-03-29 07:25:00,40.8,40.6,30.19,South,180,0.0,0.0,99,0.00,,,0.00,meteohub,2013-03-29 14:25:00,
2013-03-29 07:30:00,41.0,40.8,30.19,South,180,0.0,0.0,99,0.00,,,0.00,meteohub,2013-03-29 14:30:00,
2013-03-29 07:35:00,42.1,41.9,30.19,North,0,0.0,0.0,99,0.00,,,0.00,meteohub,2013-03-29 14:35:00,
2013-03-29 07:40:00,42.4,42.3,30.19,North,0,0.0,0.0,99,0.00,,,0.00,meteohub,2013-03-29 14:40:00,
2013-03-29 07:45:00,41.4,41.2,30.19,SE,135,0.0,0.0,99,0.00,,,0.00,meteohub,2013-03-29 14:45:00,
2013-03-29 07:50:00,41.2,41.0,30.19,SE,135,0.0,0.0,99,0.00,,,0.00,meteohub,2013-03-29 14:50:00,
2013-03-29 07:55:00,41.5,41.4,30.19,SE,135,0.0,0.0,99,0.00,,,0.00,meteohub,2013-03-29 14:55:00,
2013-03-29 08:00:00,41.7,41.5,30.19,SE,135,0.0,0.0,99,0.00,,,0.00,meteohub,2013-03-29 15:00:00,
2013-03-29 08:05:00,41.9,41.7,30.20,SE,135,0.0,0.0,99,0.00,,,0.00,meteohub,2013-03-29 15:05:00,
2013-03-29 08:10:00,41.9,41.7,30.20,SE,135,0.0,0.0,99,0.00,,,0.00,meteohub,2013-03-29 15:10:00,
2013-03-29 08:15:00,42.1,41.9,30.20,SE,135,0.0,0.0,99,0.00,,,0.00,meteohub,2013-03-29 15:15:00,
2013-03-29 08:22:00,42.3,42.1,30.19,SE,135,0.0,0.0,99,0.00,,,0.00,meteohub,2013-03-29 15:22:00,
2013-03-29 08:27:00,50.9,50.5,30.19,West,270,0.0,0.0,99,0.00,,,0.00,meteohub,2013-03-29 15:27:00,
2013-03-29 08:32:00,43.7,43.5,30.19,WSW,248,0.0,0.0,99,0.00,,,0.00,meteohub,2013-03-29 15:32:00,
2013-03-29 08:37:00,47.1,46.9,30.19,WSW,248,0.0,1.0,99,0.00,,,0.00,meteohub,2013-03-29 15:37:00,
2013-03-29 08:42:00,46.8,46.6,30.20,WSW,248,0.0,1.0,99,0.00,,,0.00,meteohub,2013-03-29 15:42:00,
2013-03-29 08:47:00,47.3,47.1,30.19,WSW,248,2.0,0.0,99,0.00,,,0.00,meteohub,2013-03-29 15:47:00,
2013-03-29 08:52:00,49.6,49.1,30.20,West,270,1.0,2.0,98,0.00,,,0.00,meteohub,2013-03-29 15:52:00,
2013-03-29 08:57:00,50.4,48.9,30.20,West,270,0.0,2.0,95,0.00,,,0.00,meteohub,2013-03-29 15:57:00,
2013-03-29 09:02:00,51.4,49.5,30.20,West,270,0.0,2.0,93,0.00,,,0.00,meteohub,2013-03-29 16:02:00,
2013-03-29 09:07:00,54.9,52.0,30.20,North,0,1.0,1.0,90,0.00,,,0.00,meteohub,2013-03-29 16:07:00,
2013-03-29 09:12:00,51.8,48.7,30.20,West,270,1.0,2.0,89,0.00,,,0.00,meteohub,2013-03-29 16:12:00,
2013-03-29 09:17:00,54.1,49.8,30.20,SE,135,1.0,2.0,85,0.00,,,0.00,meteohub,2013-03-29 16:17:00,
2013-03-29 09:22:00,54.0,48.2,30.20,North,0,1.0,2.0,81,0.00,,,0.00,meteohub,2013-03-29 16:22:00,
2013-03-29 09:27:00,52.5,45.5,30.20,South,180,1.0,2.0,77,0.00,,,0.00,meteohub,2013-03-29 16:27:00,
2013-03-29 09:32:00,51.4,45.5,30.20,North,0,2.0,2.0,80,0.00,,,0.00,meteohub,2013-03-29 16:32:00,
2013-03-29 09:37:00,52.9,47.3,30.20,North,0,2.0,2.0,81,0.00,,,0.00,meteohub,2013-03-29 16:37:00,
2013-03-29 09:42:00,53.8,48.0,30.20,SE,135,0.0,2.0,81,0.00,,,0.00,meteohub,2013-03-29 16:42:00,
2013-03-29 09:47:00,59.5,52.7,30.20,North,0,2.0,2.0,78,0.00,,,0.00,meteohub,2013-03-29 16:47:00,
2013-03-29 09:52:00,52.9,46.2,30.20,ENE,68,2.0,2.0,78,0.00,,,0.00,meteohub,2013-03-29 16:52:00,
2013-03-29 09:57:00,58.3,52.2,30.20,ENE,68,1.0,3.0,80,0.00,,,0.00,meteohub,2013-03-29 16:57:00,
2013-03-29 10:03:00,53.1,47.7,30.20,West,270,1.0,3.0,82,0.00,,,0.00,meteohub,2013-03-29 17:03:00,
2013-03-29 10:08:00,50.2,45.1,30.21,SE,135,1.0,3.0,83,0.00,,,0.00,meteohub,2013-03-29 17:08:00,
2013-03-29 10:13:00,56.8,51.4,30.21,South,180,2.0,2.0,82,0.00,,,0.00,meteohub,2013-03-29 17:13:00,
2013-03-29 10:18:00,51.6,46.6,30.20,North,0,2.0,2.0,83,0.00,,,0.00,meteohub,2013-03-29 17:18:00,
2013-03-29 10:23:00,50.4,45.3,30.20,West,270,3.0,3.0,83,0.00,,,0.00,meteohub,2013-03-29 17:23:00,
2013-03-29 10:28:00,51.8,46.4,30.21,WSW,248,2.0,3.0,82,0.00,,,0.00,meteohub,2013-03-29 17:28:00,
2013-03-29 10:33:00,49.8,44.8,30.21,North,0,2.0,3.0,83,0.00,,,0.00,meteohub,2013-03-29 17:33:00,
2013-03-29 10:38:00,53.6,47.8,30.21,West,270,1.0,3.0,81,0.00,,,0.00,meteohub,2013-03-29 17:38:00,
2013-03-29 10:44:00,55.4,48.7,30.21,North,0,1.0,2.0,78,0.00,,,0.00,meteohub,2013-03-29 17:44:00,
2013-03-29 10:49:00,59.9,51.3,30.21,North,0,1.0,2.0,73,0.00,,,0.00,meteohub,2013-03-29 17:49:00,
2013-03-29 10:54:00,59.5,49.8,30.21,West,270,1.0,3.0,70,0.00,,,0.00,meteohub,2013-03-29 17:54:00,
2013-03-29 10:59:00,60.6,49.6,30.21,North,0,2.0,3.0,67,0.00,,,0.00,meteohub,2013-03-29 17:59:00,
2013-03-29 11:04:00,65.7,52.3,30.21,WSW,248,2.0,3.0,62,0.00,,,0.00,meteohub,2013-03-29 18:04:00,
2013-03-29 11:09:00,62.2,48.2,30.21,WSW,248,2.0,3.0,60,0.00,,,0.00,meteohub,2013-03-29 18:09:00,
2013-03-29 11:14:00,63.0,49.3,30.20,North,0,2.0,4.0,61,0.00,,,0.00,meteohub,2013-03-29 18:14:00,
2013-03-29 11:19:00,65.1,50.4,30.20,North,0,1.0,4.0,59,0.00,,,0.00,meteohub,2013-03-29 18:19:00,
2013-03-29 11:24:00,66.7,50.0,30.20,SE,135,2.0,4.0,55,0.00,,,0.00,meteohub,2013-03-29 18:24:00,
2013-03-29 11:29:00,67.6,51.8,30.20,West,270,1.0,3.0,57,0.00,,,0.00,meteohub,2013-03-29 18:29:00,
2013-03-29 11:34:00,68.5,51.8,30.20,SSW,203,2.0,3.0,55,0.00,,,0.00,meteohub,2013-03-29 18:34:00,
2013-03-29 11:39:00,69.1,50.2,30.20,NNE,23,2.0,3.0,51,0.00,,,0.00,meteohub,2013-03-29 18:39:00,
2013-03-29 11:44:00,62.4,44.1,30.21,North,0,2.0,2.0,51,0.00,,,0.00,meteohub,2013-03-29 18:44:00,
2013-03-29 11:49:00,67.8,50.0,30.20,South,180,2.0,3.0,53,0.00,,,0.00,meteohub,2013-03-29 18:49:00,
2013-03-29 11:54:00,67.8,50.0,30.20,West,270,1.0,3.0,53,0.00,,,0.00,meteohub,2013-03-29 18:54:00,
2013-03-29 11:59:00,67.1,48.9,30.20,NNE,23,2.0,3.0,52,0.00,,,0.00,meteohub,2013-03-29 18:59:00,
2013-03-29 12:04:00,69.6,50.7,30.20,North,0,3.0,3.0,51,0.00,,,0.00,meteohub,2013-03-29 19:04:00,
2013-03-29 12:09:00,68.0,49.6,30.20,North,0,3.0,3.0,52,0.00,,,0.00,meteohub,2013-03-29 19:09:00,
2013-03-29 12:14:00,68.4,50.0,30.20,North,0,2.0,3.0,52,0.00,,,0.00,meteohub,2013-03-29 19:14:00,
2013-03-29 12:19:00,67.8,48.6,30.20,WSW,248,2.0,3.0,50,0.00,,,0.00,meteohub,2013-03-29 19:19:00,
2013-03-29 12:24:00,66.0,49.8,30.20,West,270,2.0,3.0,56,0.00,,,0.00,meteohub,2013-03-29 19:24:00,
2013-03-29 12:29:00,61.7,47.3,30.20,West,270,1.0,2.0,59,0.00,,,0.00,meteohub,2013-03-29 19:29:00,
2013-03-29 12:34:00,60.1,47.5,30.20,WSW,248,1.0,2.0,63,0.00,,,0.00,meteohub,2013-03-29 19:34:00,
2013-03-29 12:39:00,63.9,50.2,30.20,West,270,0.0,2.0,61,0.00,,,0.00,meteohub,2013-03-29 19:39:00,
2013-03-29 12:44:00,68.5,50.7,30.20,West,270,2.0,2.0,53,0.00,,,0.00,meteohub,2013-03-29 19:44:00,
2013-03-29 12:49:00,68.0,51.3,30.20,North,0,1.0,3.0,55,0.00,,,0.00,meteohub,2013-03-29 19:49:00,
2013-03-29 12:54:00,69.1,49.6,30.19,North,0,2.0,3.0,50,0.00,,,0.00,meteohub,2013-03-29 19:54:00,
2013-03-29 12:59:00,69.4,48.9,30.20,North,0,2.0,3.0,48,0.00,,,0.00,meteohub,2013-03-29 19:59:00,
2013-03-29 13:04:00,70.3,50.4,30.20,SE,135,2.0,2.0,49,0.00,,,0.00,meteohub,2013-03-29 20:04:00,
2013-03-29 13:09:00,70.5,49.3,30.19,West,270,1.0,2.0,47,0.00,,,0.00,meteohub,2013-03-29 20:09:00,
2013-03-29 13:14:00,71.1,49.3,30.20,North,0,4.0,4.0,46,0.00,,,0.00,meteohub,2013-03-29 20:14:00,
2013-03-29 13:19:00,68.7,48.2,30.20,ESE,113,2.0,4.0,48,0.00,,,0.00,meteohub,2013-03-29 20:19:00,
2013-03-29 13:24:00,68.5,49.6,30.20,West,270,1.0,4.0,51,0.00,,,0.00,meteohub,2013-03-29 20:24:00,
2013-03-29 13:29:00,76.5,55.9,30.20,ENE,68,2.0,4.0,49,0.00,,,0.00,meteohub,2013-03-29 20:29:00,
2013-03-29 13:34:00,71.1,50.4,30.20,North,0,2.0,2.0,48,0.00,,,0.00,meteohub,2013-03-29 20:34:00,
2013-03-29 13:39:00,71.4,51.3,30.20,South,180,2.0,2.0,49,0.00,,,0.00,meteohub,2013-03-29 20:39:00,
2013-03-29 13:44:00,73.2,51.3,30.19,North,0,3.0,4.0,46,0.00,,,0.00,meteohub,2013-03-29 20:44:00,
2013-03-29 13:49:00,73.2,51.3,30.19,North,0,2.0,4.0,46,0.00,,,0.00,meteohub,2013-03-29 20:49:00,
2013-03-29 13:55:00,74.5,52.3,30.20,NW,315,2.0,3.0,46,0.00,,,0.00,meteohub,2013-03-29 20:55:00,
2013-03-29 14:00:00,74.1,52.0,30.19,North,0,3.0,3.0,46,0.00,,,0.00,meteohub,2013-03-29 21:00:00,
2013-03-29 14:05:00,70.3,49.1,30.19,West,270,2.0,6.0,47,0.00,,,0.00,meteohub,2013-03-29 21:05:00,
2013-03-29 14:10:00,68.5,49.6,30.20,WSW,248,2.0,6.0,51,0.00,,,0.00,meteohub,2013-03-29 21:10:00,
2013-03-29 14:15:00,67.6,49.5,30.19,West,270,4.0,6.0,52,0.00,,,0.00,meteohub,2013-03-29 21:15:00,
2013-03-29 14:20:00,68.9,51.6,30.19,South,180,2.0,4.0,54,0.00,,,0.00,meteohub,2013-03-29 21:20:00,
2013-03-29 14:25:00,67.3,50.0,30.19,West,270,1.0,4.0,54,0.00,,,0.00,meteohub,2013-03-29 21:25:00,
2013-03-29 14:30:00,66.4,48.2,30.19,SW,225,2.0,4.0,52,0.00,,,0.00,meteohub,2013-03-29 21:30:00,
2013-03-29 14:35:00,68.0,50.2,30.19,North,0,4.0,4.0,53,0.00,,,0.00,meteohub,2013-03-29 21:35:00,
2013-03-29 14:40:00,69.3,52.0,30.19,North,0,1.0,4.0,54,0.00,,,0.00,meteohub,2013-03-29 21:40:00,
2013-03-29 14:45:00,69.1,50.7,30.19,NE,45,2.0,4.0,52,0.00,,,0.00,meteohub,2013-03-29 21:45:00,
2013-03-29 14:50:00,70.9,51.3,30.19,North,0,2.0,4.0,50,0.00,,,0.00,meteohub,2013-03-29 21:50:00,
2013-03-29 14:55:00,69.6,49.6,30.18,North,0,4.0,4.0,49,0.00,,,0.00,meteohub,2013-03-29 21:55:00,
2013-03-29 15:00:00,68.9,49.5,30.18,North,0,1.0,4.0,50,0.00,,,0.00,meteohub,2013-03-29 22:00:00,
2013-03-29 15:05:00,69.3,49.8,30.18,North,0,2.0,4.0,50,0.00,,,0.00,meteohub,2013-03-29 22:05:00,
2013-03-29 15:10:00,70.7,50.0,30.18,North,0,3.0,4.0,48,0.00,,,0.00,meteohub,2013-03-29 22:10:00,
2013-03-29 15:15:00,69.4,48.9,30.18,SE,135,2.0,4.0,48,0.00,,,0.00,meteohub,2013-03-29 22:15:00,
2013-03-29 15:20:00,69.8,48.7,30.17,ENE,68,2.0,4.0,47,0.00,,,0.00,meteohub,2013-03-29 22:20:00,
2013-03-29 15:25:00,70.5,48.7,30.18,North,0,1.0,4.0,46,0.00,,,0.00,meteohub,2013-03-29 22:25:00,
2013-03-29 15:30:00,71.4,49.6,30.17,West,270,1.0,3.0,46,0.00,,,0.00,meteohub,2013-03-29 22:30:00,
2013-03-29 15:35:00,71.8,49.8,30.17,North,0,2.0,2.0,46,0.00,,,0.00,meteohub,2013-03-29 22:35:00,
2013-03-29 15:40:00,69.4,49.5,30.17,ENE,68,0.0,2.0,49,0.00,,,0.00,meteohub,2013-03-29 22:40:00,
2013-03-29 15:45:00,69.8,49.8,30.17,South,180,2.0,2.0,49,0.00,,,0.00,meteohub,2013-03-29 22:45:00,
2013-03-29 15:50:00,69.4,50.0,30.17,SSW,203,2.0,2.0,50,0.00,,,0.00,meteohub,2013-03-29 22:50:00,
2013-03-29 15:55:00,69.6,50.7,30.16,West,270,1.0,2.0,51,0.00,,,0.00,meteohub,2013-03-29 22:55:00,
2013-03-29 16:00:00,71.1,50.9,30.17,North,0,4.0,4.0,49,0.00,,,0.00,meteohub,2013-03-29 23:00:00,
2013-03-29 16:05:00,68.5,49.1,30.16,North,0,2.0,4.0,50,0.00,,,0.00,meteohub,2013-03-29 23:05:00,
2013-03-29 16:10:00,69.3,49.8,30.16,West,270,1.0,4.0,50,0.00,,,0.00,meteohub,2013-03-29 23:10:00,
2013-03-29 16:15:00,70.3,50.9,30.16,North,0,2.0,4.0,50,0.00,,,0.00,meteohub,2013-03-29 23:15:00,
2013-03-29 16:20:00,58.3,39.2,30.17,West,270,1.0,3.0,49,0.00,,,0.00,meteohub,2013-03-29 23:20:00,
2013-03-29 16:25:00,69.8,50.4,30.16,West,270,2.0,4.0,50,0.00,,,0.00,meteohub,2013-03-29 23:25:00,
2013-03-29 16:30:00,68.4,48.4,30.17,North,0,2.0,4.0,49,0.00,,,0.00,meteohub,2013-03-29 23:30:00,
2013-03-29 16:35:00,68.2,48.4,30.16,West,270,2.0,4.0,49,0.00,,,0.00,meteohub,2013-03-29 23:35:00,
2013-03-29 16:40:00,67.6,48.4,30.16,North,0,2.0,4.0,50,0.00,,,0.00,meteohub,2013-03-29 23:40:00,
2013-03-29 16:45:00,67.3,47.5,30.17,North,0,2.0,2.0,49,0.00,,,0.00,meteohub,2013-03-29 23:45:00,
2013-03-29 16:50:00,66.7,46.9,30.17,West,270,2.0,2.0,49,0.00,,,0.00,meteohub,2013-03-29 23:50:00,
2013-03-29 16:55:00,68.2,48.9,30.16,NE,45,2.0,3.0,50,0.00,,,0.00,meteohub,2013-03-29 23:55:00,
2013-03-29 17:00:00,64.6,46.0,30.16,WSW,248,2.0,3.0,51,0.00,,,0.00,meteohub,2013-03-30 00:00:00,
2013-03-29 17:05:00,64.0,45.5,30.16,North,0,1.0,2.0,51,0.00,,,0.00,meteohub,2013-03-30 00:05:00,
2013-03-29 17:10:00,64.0,45.5,30.16,West,270,2.0,2.0,51,0.00,,,0.00,meteohub,2013-03-30 00:10:00,
2013-03-29 17:16:00,63.3,45.3,30.16,North,0,2.0,2.0,52,0.00,,,0.00,meteohub,2013-03-30 00:16:00,
2013-03-29 17:21:00,62.8,45.3,30.16,North,0,2.0,2.0,53,0.00,,,0.00,meteohub,2013-03-30 00:21:00,
2013-03-29 17:26:00,62.6,44.8,30.17,North,0,2.0,2.0,52,0.00,,,0.00,meteohub,2013-03-30 00:26:00,
2013-03-29 17:31:00,63.3,45.0,30.16,WNW,293,1.0,2.0,51,0.00,,,0.00,meteohub,2013-03-30 00:31:00,
2013-03-29 17:36:00,62.6,44.8,30.17,North,0,2.0,2.0,52,0.00,,,0.00,meteohub,2013-03-30 00:36:00,
2013-03-29 17:41:00,63.3,45.3,30.17,North,0,1.0,3.0,52,0.00,,,0.00,meteohub,2013-03-30 00:41:00,
2013-03-29 17:46:00,62.2,44.4,30.17,North,0,2.0,3.0,52,0.00,,,0.00,meteohub,2013-03-30 00:46:00,
2013-03-29 17:51:00,64.0,46.6,30.17,North,0,1.0,3.0,53,0.00,,,0.00,meteohub,2013-03-30 00:51:00,
2013-03-29 17:56:00,60.6,43.3,30.17,South,180,2.0,2.0,53,0.00,,,0.00,meteohub,2013-03-30 00:56:00,
2013-03-29 18:01:00,63.7,47.3,30.17,North,0,1.0,2.0,55,0.00,,,0.00,meteohub,2013-03-30 01:01:00,
2013-03-29 18:06:00,61.5,45.7,30.17,North,0,1.0,3.0,56,0.00,,,0.00,meteohub,2013-03-30 01:06:00,
2013-03-29 18:12:00,62.4,46.9,30.17,North,0,1.0,3.0,57,0.00,,,0.00,meteohub,2013-03-30 01:12:00,
2013-03-29 18:17:00,61.5,46.6,30.17,North,0,1.0,3.0,58,0.00,,,0.00,meteohub,2013-03-30 01:17:00,
2013-03-29 18:22:00,62.6,47.7,30.17,North,0,2.0,2.0,58,0.00,,,0.00,meteohub,2013-03-30 01:22:00,
2013-03-29 18:27:00,62.6,48.6,30.17,North,0,1.0,2.0,60,0.00,,,0.00,meteohub,2013-03-30 01:27:00,
2013-03-29 18:32:00,64.8,50.5,30.17,North,0,1.0,2.0,60,0.00,,,0.00,meteohub,2013-03-30 01:32:00,
2013-03-29 18:37:00,60.1,47.5,30.17,North,0,0.0,2.0,63,0.00,,,0.00,meteohub,2013-03-30 01:37:00,
2013-03-29 18:42:00,59.0,47.3,30.17,North,0,0.0,2.0,65,0.00,,,0.00,meteohub,2013-03-30 01:42:00,
2013-03-29 18:47:00,57.2,46.4,30.17,North,0,1.0,2.0,67,0.00,,,0.00,meteohub,2013-03-30 01:47:00,
2013-03-29 18:52:00,69.3,58.6,30.17,ESE,113,2.0,2.0,69,0.00,,,0.00,meteohub,2013-03-30 01:52:00,
2013-03-29 18:57:00,57.6,48.2,30.17,ESE,113,2.0,2.0,71,0.00,,,0.00,meteohub,2013-03-30 01:57:00,
2013-03-29 19:03:00,57.0,47.7,30.17,North,-999,-999.0,2.0,71,0.00,,,0.00,meteohub,2013-03-30 02:03:00,
2013-03-29 19:08:00,55.4,46.6,30.17,North,0,0.0,2.0,72,0.00,,,0.00,meteohub,2013-03-30 02:08:00,
2013-03-29 19:13:00,55.9,47.5,30.17,North,0,1.0,1.0,73,0.00,,,0.00,meteohub,2013-03-30 02:13:00,
2013-03-29 19:18:00,55.6,47.8,30.17,North,0,1.0,2.0,75,0.00,,,0.00,meteohub,2013-03-30 02:18:00,
2013-03-29 19:23:00,55.0,46.9,30.17,North,-999,-999.0,2.0,74,0.00,,,0.00,meteohub,2013-03-30 02:23:00,
2013-03-29 19:28:00,54.5,46.8,30.17,North,-999,-999.0,2.0,75,0.00,,,0.00,meteohub,2013-03-30 02:28:00,
2013-03-29 19:33:00,53.4,46.0,30.17,West,270,0.0,1.0,76,0.00,,,0.00,meteohub,2013-03-30 02:33:00,
2013-03-29 19:38:00,52.7,45.7,30.18,West,270,0.0,0.0,77,0.00,,,0.00,meteohub,2013-03-30 02:38:00,
2013-03-29 19:43:00,52.2,45.5,30.17,West,270,0.0,0.0,78,0.00,,,0.00,meteohub,2013-03-30 02:43:00,
2013-03-29 19:48:00,51.8,45.5,30.17,West,270,0.0,0.0,79,0.00,,,0.00,meteohub,2013-03-30 02:48:00,
2013-03-29 19:53:00,61.3,55.0,30.17,NNE,23,2.0,0.0,80,0.00,,,0.00,meteohub,2013-03-30 02:53:00,
2013-03-29 19:58:00,52.0,46.4,30.17,NNE,23,1.0,2.0,81,0.00,,,0.00,meteohub,2013-03-30 02:58:00,
2013-03-29 20:03:00,51.8,46.2,30.18,North,-999,-999.0,2.0,81,0.00,,,0.00,meteohub,2013-03-30 03:03:00,
2013-03-29 20:08:00,51.8,45.9,30.18,North,0,0.0,2.0,80,0.00,,,0.00,meteohub,2013-03-30 03:08:00,
2013-03-29 20:13:00,51.4,45.9,30.18,North,-999,-999.0,0.0,81,0.00,,,0.00,meteohub,2013-03-30 03:13:00,
2013-03-29 20:18:00,51.1,45.5,30.18,North,-999,-999.0,0.0,81,0.00,,,0.00,meteohub,2013-03-30 03:18:00,
2013-03-29 20:23:00,50.9,45.3,30.18,North,-999,-999.0,0.0,81,0.00,,,0.00,meteohub,2013-03-30 03:23:00,
2013-03-29 20:28:00,50.7,45.5,30.18,North,-999,-999.0,-999.0,82,0.00,,,0.00,meteohub,2013-03-30 03:28:00,
2013-03-29 20:33:00,50.4,44.8,30.18,North,-999,-999.0,-999.0,81,0.00,,,0.00,meteohub,2013-03-30 03:33:00,
2013-03-29 20:38:00,50.2,45.0,30.19,North,-999,-999.0,-999.0,82,0.00,,,0.00,meteohub,2013-03-30 03:38:00,
2013-03-29 20:43:00,49.8,44.6,30.19,North,-999,-999.0,-999.0,82,0.00,,,0.00,meteohub,2013-03-30 03:43:00,
2013-03-29 20:48:00,49.3,44.4,30.19,North,-999,-999.0,-999.0,83,0.00,,,0.00,meteohub,2013-03-30 03:48:00,
2013-03-29 20:53:00,49.1,44.4,30.19,North,-999,-999.0,-999.0,84,0.00,,,0.00,meteohub,2013-03-30 03:53:00,
2013-03-29 20:58:00,48.9,44.6,30.19,North,-999,-999.0,-999.0,85,0.00,,,0.00,meteohub,2013-03-30 03:58:00,
2013-03-29 21:00:00,48.9,44.6,30.19,North,-999,-999.0,-999.0,85,0.00,,,0.00,meteohub,2013-03-30 04:00:00,
2013-03-29 21:05:00,48.6,44.2,30.19,North,-999,-999.0,-999.0,85,0.00,,,0.00,meteohub,2013-03-30 04:05:00,
2013-03-29 21:10:00,48.4,44.4,30.19,North,-999,-999.0,-999.0,86,0.00,,,0.00,meteohub,2013-03-30 04:10:00,
2013-03-29 21:15:00,48.2,44.6,30.19,North,-999,-999.0,-999.0,87,0.00,,,0.00,meteohub,2013-03-30 04:15:00,
2013-03-29 21:20:00,48.0,44.6,30.20,North,-999,-999.0,-999.0,88,0.00,,,0.00,meteohub,2013-03-30 04:20:00,
2013-03-29 21:25:00,48.0,45.0,30.20,North,-999,-999.0,-999.0,89,0.00,,,0.00,meteohub,2013-03-30 04:25:00,
2013-03-29 21:30:00,47.8,45.0,30.20,North,-999,-999.0,-999.0,90,0.00,,,0.00,meteohub,2013-03-30 04:30:00,
2013-03-29 21:35:00,47.8,45.0,30.20,North,-999,-999.0,-999.0,90,0.00,,,0.00,meteohub,2013-03-30 04:35:00,
2013-03-29 21:40:00,47.8,45.3,30.19,North,-999,-999.0,-999.0,91,0.00,,,0.00,meteohub,2013-03-30 04:40:00,
2013-03-29 21:45:00,47.7,45.1,30.20,North,-999,-999.0,-999.0,91,0.00,,,0.00,meteohub,2013-03-30 04:45:00,
2013-03-29 21:50:00,47.5,45.0,30.20,North,-999,-999.0,-999.0,91,0.00,,,0.00,meteohub,2013-03-30 04:50:00,
2013-03-29 21:55:00,47.3,45.1,30.20,North,-999,-999.0,-999.0,92,0.00,,,0.00,meteohub,2013-03-30 04:55:00,
2013-03-29 22:00:00,47.1,45.0,30.20,North,-999,-999.0,-999.0,92,0.00,,,0.00,meteohub,2013-03-30 05:00:00,
2013-03-29 22:05:00,46.8,44.6,30.20,North,-999,-999.0,-999.0,92,0.00,,,0.00,meteohub,2013-03-30 05:05:00,
2013-03-29 22:11:00,46.8,44.6,30.20,North,-999,-999.0,-999.0,92,0.00,,,0.00,meteohub,2013-03-30 05:11:00,
2013-03-29 22:16:00,46.8,44.8,30.20,North,-999,-999.0,-999.0,93,0.00,,,0.00,meteohub,2013-03-30 05:16:00,
2013-03-29 22:21:00,46.8,44.6,30.20,North,-999,-999.0,-999.0,92,0.00,,,0.00,meteohub,2013-03-30 05:21:00,
2013-03-29 22:26:00,46.6,44.6,30.20,North,-999,-999.0,-999.0,93,0.00,,,0.00,meteohub,2013-03-30 05:26:00,
2013-03-29 22:31:00,46.6,44.6,30.20,North,-999,-999.0,-999.0,93,0.00,,,0.00,meteohub,2013-03-30 05:31:00,
2013-03-29 22:36:00,46.6,44.6,30.21,North,-999,-999.0,-999.0,93,0.00,,,0.00,meteohub,2013-03-30 05:36:00,
2013-03-29 22:41:00,46.4,44.4,30.21,North,-999,-999.0,-999.0,93,0.00,,,0.00,meteohub,2013-03-30 05:41:00,
2013-03-29 22:46:00,46.4,44.4,30.21,North,-999,-999.0,-999.0,93,0.00,,,0.00,meteohub,2013-03-30 05:46:00,
2013-03-29 22:51:00,46.2,44.2,30.21,North,-999,-999.0,-999.0,93,0.00,,,0.00,meteohub,2013-03-30 05:51:00,
2013-03-29 22:56:00,46.0,44.1,30.21,North,-999,-999.0,-999.0,93,0.00,,,0.00,meteohub,2013-03-30 05:56:00,
2013-03-29 23:01:00,46.0,44.4,30.21,North,-999,-999.0,-999.0,94,0.00,,,0.00,meteohub,2013-03-30 06:01:00,
2013-03-29 23:06:00,46.0,44.4,30.21,North,-999,-999.0,-999.0,94,0.00,,,0.00,meteohub,2013-03-30 06:06:00,
2013-03-29 23:11:00,45.9,44.2,30.20,North,-999,-999.0,-999.0,94,0.00,,,0.00,meteohub,2013-03-30 06:11:00,
2013-03-29 23:16:00,45.5,44.2,30.21,North,-999,-999.0,-999.0,95,0.00,,,0.00,meteohub,2013-03-30 06:16:00,
2013-03-29 23:21:00,45.7,44.4,30.21,North,-999,-999.0,-999.0,95,0.00,,,0.00,meteohub,2013-03-30 06:21:00,
2013-03-29 23:27:00,45.5,44.4,30.21,North,-999,-999.0,-999.0,96,0.00,,,0.00,meteohub,2013-03-30 06:27:00,
2013-03-29 23:32:00,45.3,44.2,30.21,North,-999,-999.0,-999.0,96,0.00,,,0.00,meteohub,2013-03-30 06:32:00,
2013-03-29 23:37:00,45.5,44.4,30.21,North,-999,-999.0,-999.0,96,0.00,,,0.00,meteohub,2013-03-30 06:37:00,
2013-03-29 23:42:00,45.3,44.2,30.21,North,-999,-999.0,-999.0,96,0.00,,,0.00,meteohub,2013-03-30 06:42:00,
2013-03-29 23:47:00,45.3,44.6,30.21,North,-999,-999.0,-999.0,97,0.00,,,0.00,meteohub,2013-03-30 06:47:00,
2013-03-29 23:52:00,45.1,44.4,30.22,North,-999,-999.0,-999.0,97,0.00,,,0.00,meteohub,2013-03-30 06:52:00,
2013-03-29 23:57:00,45.1,44.6,30.22,North,-999,-999.0,-999.0,98,0.00,,,0.00,meteohub,2013-03-30 06:57:00,